Hermiston, OR

1:20 AM PST on February 28, 2017 (GMT -0800)
Hermiston Municipal

Weather History for KHRI - February, 2013

Change the Weather History Date:

Wednesday, February 6, 2013

  Actual Average Record
Temperature  
Mean Temperature 43 °F 37 °F  
Max Temperature 54 °F 46 °F 65 °F (1965)
Min Temperature 32 °F 27 °F -13 °F (1929)
Degree Days  
Heating Degree Days 22    
Moisture  
Dew Point 32 °F    
Average Humidity 65    
Maximum Humidity 82    
Minimum Humidity 47    
Precipitation  
Precipitation 0.00 in 0.04 in 0.90 in (1938)
Month to date precipitation 0.27  
Year to date precipitation 1.61  
Sea Level Pressure  
Sea Level Pressure 30.02 in    
Wind  
Wind Speed 7 mph (SE)    
Max Wind Speed 9 mph    
Max Gust Speed -    
Visibility 10 miles    
Events      
T = Trace of Precipitation, MM = Missing Value Source: NWS Daily Summary

Daily Weather History Graph

Daily Weather History Graph

Search for Another Location

Airport or City:

Trip Planner

Search our weather history database for the weather conditions in past years. The results will help you decide how hot, cold, wet, or windy it might be!

Date:

Astronomy

Feb. 06, 2013 Rise Set
Actual Time 7:12 AM PST 5:10 PM PST
Civil Twilight 6:40 AM PST 5:42 PM PST
Nautical Twilight 6:05 AM PST 6:17 PM PST
Astronomical Twilight 5:30 AM PST 6:52 PM PST
Moon 4:06 AM PST (2/6) 1:28 PM PST (2/6)
Length of Visible Light 11h 01m
Length of Day
9h 58m
Waning Crescent, 16% of the Moon is Illuminated
Feb 6
Waning Crescent
Feb 9
New
Feb 17
First Quarter
Feb 25
Full
Mar 4
Last Quarter

Hourly Weather History & Observations

Time (PST) Temp. Windchill Dew Point Humidity Pressure Visibility Wind Dir Wind Speed Gust Speed Precip Events Conditions
12:53 AM 39.0 °F 32.8 °F 30.9 °F 73% 30.01 in 10.0 mi SW 9.2 mph - N/A   Clear
1:53 AM 39.0 °F 34.0 °F 30.9 °F 73% 30.04 in 10.0 mi West 6.9 mph - N/A   Clear
2:53 AM 39.9 °F 33.9 °F 30.9 °F 70% 30.04 in 10.0 mi SW 9.2 mph - N/A   Clear
3:53 AM 39.9 °F 33.9 °F 30.9 °F 70% 30.04 in 10.0 mi SW 9.2 mph - N/A   Clear
4:53 AM 35.1 °F 28.6 °F 28.0 °F 76% 30.06 in 10.0 mi SW 8.1 mph - N/A   Clear
5:53 AM 37.9 °F 32.7 °F 28.9 °F 70% 30.07 in 10.0 mi WSW 6.9 mph - N/A   Mostly Cloudy
6:53 AM 36.0 °F - 28.9 °F 76% 30.09 in 10.0 mi Calm Calm - N/A   Mostly Cloudy
7:53 AM 32.0 °F - 27.0 °F 82% 30.10 in 10.0 mi Calm Calm - N/A   Clear
8:53 AM 46.0 °F 42.5 °F 34.0 °F 63% 30.10 in 10.0 mi SW 6.9 mph - N/A   Clear
9:53 AM 48.0 °F - 34.0 °F 58% 30.11 in 10.0 mi West 9.2 mph - N/A   Clear
10:53 AM 48.9 °F - 35.1 °F 59% 30.11 in 10.0 mi Calm Calm - N/A   Clear
11:53 AM 50.0 °F - 35.1 °F 57% 30.09 in 10.0 mi NW 3.5 mph - N/A   Unknown
12:53 PM 53.1 °F - 33.1 °F 47% 30.07 in 10.0 mi Calm Calm - N/A   Clear
1:53 PM 54.0 °F - 35.1 °F 49% 30.05 in 10.0 mi NNE 4.6 mph - N/A   Clear
2:53 PM 53.1 °F - 34.0 °F 48% 30.03 in 10.0 mi ENE 4.6 mph - N/A   Clear
3:53 PM 50.0 °F - 36.0 °F 59% 30.01 in 10.0 mi East 5.8 mph - N/A   Scattered Clouds
4:53 PM 48.9 °F - 35.1 °F 59% 29.99 in 10.0 mi ENE 5.8 mph - N/A   Mostly Cloudy
5:53 PM 45.0 °F 41.2 °F 36.0 °F 71% 29.97 in 10.0 mi East 6.9 mph - N/A   Mostly Cloudy
6:53 PM 45.0 °F 41.2 °F 34.0 °F 65% 29.96 in 10.0 mi ENE 6.9 mph - N/A   Partly Cloudy
7:53 PM 42.1 °F 37.1 °F 33.1 °F 70% 29.95 in 10.0 mi East 8.1 mph - N/A   Clear
8:53 PM 39.0 °F 34.8 °F 33.1 °F 79% 29.92 in 10.0 mi East 5.8 mph - N/A   Clear
9:53 PM 37.9 °F 33.5 °F 32.0 °F 79% 29.90 in 10.0 mi East 5.8 mph - N/A   Clear
10:53 PM 44.1 °F 39.0 °F 30.9 °F 60% 29.88 in 10.0 mi SE 9.2 mph - N/A   Clear
11:53 PM 46.0 °F 41.4 °F 28.9 °F 51% 29.87 in 10.0 mi SE 9.2 mph - N/A   Clear